[[{"header":{"parameterUnit":"m.s-1","parameterCategory":1,"la1":30.2991,"la2":30.254,"lo1":-89.0895,"lo2":-89.0444,"dy":0.0017,"dx":0.0017,"nx":28,"ny":28,"refTime":"2025-04-14T09:00:00:Z","depth":0,"parameterNumber":2,"parameterNumberName":"U-component_of_WINDS"},"data":[0,0,0,0,0,0,0,0,0,0,0,0,0,0,0,0,0,0,0,0,0,0,0,0,0,0,0,0,0,0,0,0,0,0,0,0,0,0,0,0,0,0,0,0,0,0,0,0,0,0,0,0,0,0,0,0,0,0,4.1469,4.1469,0,4.1472,4.1472,4.1472,4.1366,4.1364,4.1361,4.1358,4.1359,4.1361,4.1364,0,0,0,0,0,0,0,0,0,0,0,0,0,4.1371,4.1373,4.1469,4.1469,4.1469,4.1472,4.1472,4.1472,4.1367,4.1364,4.136,4.1357,4.1358,4.1361,4.1364,0,0,0,0,0,0,0,0,0,0,0,0,0,4.1398,4.1374,4.1469,4.1417,4.1413,4.1472,4.1472,4.1472,4.1368,4.1363,4.1359,4.1355,4.1357,4.1361,4.1364,4.1473,0,0,4.1376,4.1378,0,0,0,0,0,0,0,0,4.1396,4.1402,4.1425,4.1421,4.1416,4.1415,4.1438,4.1472,4.1369,4.1385,4.1358,4.1353,4.1381,4.1382,4.1392,4.1473,4.1473,4.1377,4.1379,4.1381,4.1382,0,0,0,0,0,0,0,4.1395,4.1401,4.147,4.1425,4.142,4.1393,4.1392,4.1444,4.1406,4.1383,4.1375,4.1377,4.1377,4.1388,4.1391,4.1473,4.1377,4.138,4.1383,4.1384,4.1644,4.1648,0,0,0,0,0,0,4.14,4.14,4.147,4.147,4.1396,4.1399,4.1397,4.1419,4.1405,4.1399,4.1381,4.1372,4.1384,4.1387,4.1391,4.1517,4.1381,4.1385,4.1387,4.164,4.1645,4.165,0,0,0,0,0,0,4.1399,4.1408,4.147,4.1433,4.1439,4.1405,4.143,4.1422,4.1432,4.1404,4.1396,4.1399,4.1381,4.1385,4.1454,4.1515,4.1386,4.139,4.1634,4.1641,4.1647,4.177,0,0,0,0,0,0,4.1396,4.1408,4.1449,4.1435,4.1442,4.1534,4.1434,4.1425,4.144,4.1429,4.1419,4.1413,4.1378,4.1448,4.1458,4.1518,4.1393,4.1628,4.1637,4.1645,4.176,4.178,4.1797,0,0,0,0,0,4.1393,4.1482,4.1451,4.146,4.1492,4.1537,4.1541,4.1499,4.1445,4.1486,4.1468,4.1414,4.1508,4.1456,4.1466,4.1529,4.1624,4.1635,4.1645,4.1752,4.1776,4.1797,0,0,0,0,0,0,4.1502,4.1479,4.1445,4.1532,4.1538,4.152,4.1569,4.1526,4.1546,4.1534,4.1481,4.1479,4.1556,4.1549,4.1493,4.1633,4.1556,4.1569,4.1635,4.1658,4.1676,4.1675,4.1396,0,0,0,0,0,4.1537,4.1577,4.1554,4.1633,4.1638,4.1604,4.1622,4.1589,4.1592,4.1594,4.158,4.1585,4.1615,4.1636,4.1663,4.176,4.1756,4.1808,4.1826,4.1842,4.1852,4.1903,4.1926,4.1683,4.1683,4.1683,0,0,4.1608,4.1601,4.1629,4.1655,4.1656,4.1697,4.1606,4.1654,4.1684,4.16,4.1664,4.1655,4.1657,4.174,4.1776,4.1737,4.1919,4.1855,4.1867,4.1869,4.1916,4.1939,4.196,4.169,4.1689,4.1688,0,0,4.1759,4.1758,4.1824,4.1827,4.1829,4.1806,4.1823,4.1812,4.1803,4.1866,4.1805,4.184,4.1894,4.1897,4.1906,4.2062,4.2012,4.2072,4.2167,4.2218,4.2237,4.2253,4.2308,4.2328,4.2083,4.2084,4.2084,0,4.1847,4.1907,4.1863,4.1915,4.1929,4.1858,4.1924,4.1929,4.194,4.195,4.1907,4.1973,4.1969,4.2052,4.2091,4.2101,4.2117,4.2071,4.2238,4.2254,4.2269,4.232,4.2341,4.2091,4.209,4.2089,4.2088,0,4.2015,4.2058,4.2111,4.2125,4.2145,4.2204,4.2168,4.2194,4.216,4.2142,4.2208,4.2201,4.2225,4.2243,4.221,4.2323,4.2298,4.2247,4.2168,4.23,4.2347,4.2367,4.2101,4.2098,4.2096,4.2094,0,0,4.2231,4.2222,4.2242,4.2248,4.2247,4.2279,4.2336,4.236,4.2383,4.2394,4.2439,4.2487,4.2441,4.2451,4.2418,4.2463,4.2586,4.2406,4.2406,4.2439,4.2708,4.2746,4.2769,4.2554,4.2558,4.2561,4.2708,0,4.2377,4.2473,4.2436,4.2534,4.2574,4.2508,4.2557,4.2562,4.2547,4.2578,4.2561,4.2596,4.2532,4.2538,4.2579,4.2562,4.2639,4.2551,4.2595,4.2597,4.2595,4.2794,4.2833,4.2972,4.2726,4.2729,4.2732,0,4.2558,4.2578,4.2681,4.2675,4.269,4.2734,4.2755,4.2786,4.279,4.2776,4.2789,4.2747,4.2801,4.2725,4.2799,4.274,4.2756,4.2751,4.2755,4.2756,4.2671,4.2799,4.3015,4.3036,4.2761,4.2758,4.2756,0,4.2705,4.2757,4.2826,4.2833,4.2827,4.286,4.2859,4.2859,4.2877,4.2895,4.2906,4.293,4.2943,4.2962,4.2928,4.2876,4.3007,4.2927,4.2996,4.2997,4.3024,4.3023,4.3245,4.3038,4.3038,4.3038,4.3037,0,4.287,4.2935,4.2892,4.2934,4.3005,4.2963,4.3034,4.3026,4.3027,4.3066,4.3011,4.3049,4.3002,4.3035,4.3009,4.3074,4.308,4.307,4.3062,4.3074,4.3075,4.3082,4.3071,4.3043,4.3042,4.3041,4.304,0,4.3044,4.3018,4.3088,4.3078,4.3077,4.313,4.3121,4.3159,4.3142,4.3192,4.3201,4.3173,4.321,4.3178,4.3213,4.3195,4.3281,4.326,4.328,4.3274,4.3343,4.3337,4.3576,4.3605,4.3382,4.3384,4.3386,0,4.315,4.3199,4.3195,4.3218,4.3221,4.3258,4.3277,4.3238,4.3259,4.3269,4.3306,4.3338,4.3361,4.3422,4.3405,4.3431,4.3409,4.3492,4.3412,4.3423,4.3409,4.3406,4.341,4.3507,4.3509,4.3511,4.3513,0,4.334,4.3326,4.3355,4.3381,4.3405,4.3423,4.3437,4.3458,4.3418,4.3445,4.3483,4.3501,4.3538,4.357,4.3591,4.3589,4.3545,4.3539,4.3556,4.3567,4.3576,4.3571,4.3322,4.3533,4.3531,4.3529,4.3528,4.3527,4.3482,4.3523,4.3527,4.3562,4.3569,4.3584,4.3619,4.3608,4.3638,4.3666,4.3641,4.3686,4.369,4.3714,4.3718,4.3752,4.3718,4.3743,4.3748,4.3755,4.3764,4.3573,4.3756,4.3756,4.3755,4.3755,4.3754,0,4.3669,4.3669,4.3702,4.3724,4.3752,4.371,4.3723,4.3749,4.379,4.3798,4.3823,4.3866,4.3898,4.3884,4.3912,4.3942,4.3922,4.395,4.3946,4.3947,4.3794,4.3776,4.3966,4.3966,4.3966,4.3966,4.3966,4.3966,4.3769,4.3836,4.3822,4.3892,4.3891,4.3936,4.3947,4.3961,4.3967,4.4018,4.4045,4.4037,4.4036,4.4064,4.4091,4.4086,4.4098,4.4134,4.4121,4.3978,4.3957,4.3937,4.392,4.4137,4.4137,4.427,4.4272,4.4273]},{"header":{"parameterUnit":"m.s-1","parameterCategory":1,"la1":30.2991,"la2":30.254,"lo1":-89.0895,"lo2":-89.0444,"dy":0.0017,"dx":0.0017,"nx":28,"ny":28,"refTime":"2025-04-14T09:00:00:Z","depth":0,"parameterNumber":3,"parameterNumberName":"V-component_of_WINDS"},"data":[0,0,0,0,0,0,0,0,0,0,0,0,0,0,0,0,0,0,0,0,0,0,0,0,0,0,0,0,0,0,0,0,0,0,0,0,0,0,0,0,0,0,0,0,0,0,0,0,0,0,0,0,0,0,0,0,0,0,3.6824,3.6825,0,3.6919,3.692,3.6921,3.6921,3.6919,3.6918,3.6917,3.7011,3.7015,3.7018,0,0,0,0,0,0,0,0,0,0,0,0,0,3.6639,3.6643,3.6824,3.6825,3.6826,3.6919,3.692,3.6921,3.6921,3.6919,3.6918,3.6916,3.701,3.7014,3.7019,0,0,0,0,0,0,0,0,0,0,0,0,0,3.6725,3.6644,3.6824,3.6837,3.6839,3.6918,3.692,3.6922,3.6921,3.6919,3.6917,3.6916,3.7008,3.7014,3.7019,3.709,0,0,3.7036,3.7038,0,0,0,0,0,0,0,0,3.672,3.6732,3.6834,3.6836,3.6839,3.6906,3.6889,3.6978,3.6922,3.689,3.6917,3.6915,3.6977,3.6985,3.7007,3.7094,3.7098,3.7036,3.704,3.7042,3.7044,0,0,0,0,0,0,0,3.6715,3.6728,3.6861,3.6835,3.6839,3.6838,3.6848,3.6906,3.6943,3.6893,3.6893,3.6904,3.6978,3.7002,3.7009,3.71,3.7036,3.7041,3.7044,3.7047,3.7251,3.7253,0,0,0,0,0,0,3.6706,3.6723,3.6858,3.6864,3.6774,3.6842,3.6854,3.6886,3.6942,3.6949,3.6906,3.6904,3.6993,3.7003,3.7013,3.71,3.7042,3.7047,3.705,3.7249,3.7251,3.7253,0,0,0,0,0,0,3.6702,3.6718,3.6854,3.6794,3.6811,3.6848,3.6884,3.6889,3.6913,3.6952,3.6958,3.6923,3.6992,3.7005,3.7071,3.7103,3.705,3.7055,3.7246,3.7249,3.7252,3.7275,0,0,0,0,0,0,3.6697,3.6717,3.6745,3.6794,3.6814,3.6912,3.6886,3.6892,3.6923,3.6921,3.697,3.6976,3.6992,3.7063,3.7077,3.711,3.7059,3.7243,3.7248,3.7251,3.7271,3.7278,3.7284,0,0,0,0,0,3.669,3.6746,3.6746,3.6762,3.685,3.6914,3.6925,3.6943,3.6925,3.6953,3.6979,3.6975,3.7097,3.707,3.7085,3.712,3.7241,3.7246,3.7251,3.7268,3.7277,3.7284,0,0,0,0,0,0,3.6698,3.6753,3.6753,3.6827,3.6866,3.6914,3.695,3.6951,3.6995,3.6992,3.701,3.7021,3.7088,3.711,3.7079,3.7192,3.7167,3.7175,3.7175,3.7183,3.719,3.7183,3.7063,0,0,0,0,0,3.6709,3.6757,3.6802,3.6863,3.6883,3.6913,3.6941,3.6952,3.6992,3.7008,3.7038,3.7077,3.7124,3.7155,3.7201,3.7274,3.7285,3.7306,3.7313,3.7318,3.7325,3.7366,3.7376,3.7269,3.7269,3.7269,0,0,3.6731,3.6767,3.6796,3.6865,3.6897,3.6946,3.6927,3.6979,3.7016,3.7016,3.7081,3.7104,3.7149,3.7219,3.7252,3.724,3.7357,3.7324,3.7328,3.7332,3.7372,3.7382,3.7391,3.7272,3.7272,3.7271,0,0,3.6796,3.6828,3.6883,3.6915,3.6963,3.6983,3.6996,3.7044,3.706,3.7126,3.7127,3.717,3.7251,3.7283,3.7309,3.7388,3.7386,3.7402,3.7436,3.7476,3.7484,3.7492,3.752,3.753,3.7408,3.7408,3.7408,0,3.6817,3.6892,3.691,3.6963,3.6994,3.6998,3.7053,3.7083,3.7143,3.7164,3.715,3.7252,3.7282,3.7361,3.738,3.7401,3.7417,3.7396,3.7482,3.7489,3.7497,3.7524,3.7534,3.741,3.741,3.741,3.7409,0,3.6915,3.6967,3.7005,3.7065,3.7099,3.7153,3.7179,3.7212,3.7219,3.7241,3.7308,3.7344,3.7397,3.7417,3.7423,3.7496,3.7488,3.7478,3.7453,3.7508,3.7534,3.7545,3.7412,3.7412,3.7411,3.7411,0,0,3.6987,3.7057,3.7071,3.7098,3.7152,3.7192,3.7246,3.73,3.7328,3.7369,3.7414,3.7483,3.7475,3.7505,3.7516,3.7551,3.7611,3.7537,3.7538,3.755,3.7694,3.7702,3.7713,3.761,3.7612,3.7614,3.769,0,3.7058,3.7156,3.7174,3.7259,3.7307,3.7311,3.7358,3.7396,3.7417,3.7461,3.7484,3.7533,3.7517,3.7536,3.7571,3.7596,3.764,3.7591,3.7653,3.7655,3.7642,3.7727,3.7735,3.7805,3.7701,3.7702,3.7704,0,3.7154,3.72,3.7289,3.7338,3.7358,3.74,3.7451,3.7493,3.7536,3.7549,3.7583,3.759,3.7646,3.7618,3.7695,3.7661,3.7688,3.7704,3.7707,3.7714,3.7683,3.7736,3.7828,3.7839,3.772,3.7718,3.7717,0,3.7199,3.7282,3.7347,3.737,3.7427,3.7457,3.7482,3.7523,3.7555,3.7599,3.7619,3.7668,3.7696,3.7734,3.7753,3.7732,3.7829,3.7803,3.7841,3.7841,3.7862,3.786,3.796,3.7878,3.7878,3.7878,3.7877,0,3.7277,3.7331,3.7368,3.7407,3.7469,3.7489,3.7549,3.7574,3.761,3.7654,3.7661,3.7702,3.7726,3.777,3.7786,3.7847,3.7859,3.7871,3.7875,3.7871,3.787,3.7889,3.7884,3.7881,3.788,3.7879,3.7879,0,3.7336,3.7363,3.7434,3.7483,3.7497,3.754,3.7582,3.762,3.7642,3.7698,3.7712,3.7745,3.7798,3.7822,3.7886,3.7897,3.7968,3.7967,3.7954,3.7955,3.7992,3.7988,3.8108,3.8124,3.8031,3.8032,3.8033,0,3.7384,3.7427,3.7481,3.7512,3.7538,3.7587,3.762,3.7642,3.7675,3.7727,3.7759,3.7813,3.7857,3.7941,3.797,3.802,3.8021,3.8059,3.8028,3.8024,3.8022,3.802,3.8024,3.8065,3.8066,3.8067,3.8067,0,3.7467,3.7478,3.7525,3.7577,3.7616,3.7658,3.7698,3.7723,3.7751,3.7788,3.7843,3.7877,3.7944,3.7997,3.8049,3.8073,3.8075,3.8077,3.8089,3.8085,3.8076,3.8082,3.7969,3.8074,3.8073,3.8073,3.8073,3.8072,3.7522,3.7561,3.7605,3.7658,3.7691,3.7729,3.7768,3.7795,3.7842,3.7899,3.7909,3.7967,3.8009,3.8079,3.8106,3.8152,3.8142,3.8159,3.8163,3.8167,3.817,3.8068,3.8161,3.8161,3.8161,3.8161,3.8161,0,3.7606,3.7635,3.7683,3.7741,3.7782,3.7781,3.7826,3.7861,3.7912,3.7952,3.7996,3.8059,3.811,3.8145,3.8197,3.8227,3.8229,3.824,3.8238,3.8244,3.8175,3.816,3.8237,3.8237,3.8237,3.8237,3.8237,3.8237,3.7654,3.7719,3.7736,3.7817,3.7846,3.7904,3.793,3.7965,3.7997,3.8068,3.8112,3.8134,3.8172,3.8227,3.8274,3.8283,3.8301,3.8313,3.8321,3.8256,3.8248,3.8241,3.8227,3.8317,3.8317,3.8386,3.8387,3.8387]}]]